Overview Statistics Trail Chart Weather Telemetry Raw packets
 

This is the latest recevied weather packets stored in our database for station/object IZ5TJI-3. If no packets are shown the sender has not sent any weather packets the latest 10 day(s).

<< 1 2 3 4 5 >>
Time Temp. Humidity Pressure Rain* Wind** Luminosity Snow
1788590624 20° C 82% 1016.3 hPa 0 mm - - -
1788589724 18.89° C 84% 1016.5 hPa 0 mm - - -
1788588824 17.78° C 86% 1016.3 hPa 0 mm - - -
1788587924 17.78° C 88% 1016.4 hPa 0 mm - - -
1788587024 16.67° C 89% 1016.3 hPa 0 mm - - -
1788586124 16.11° C 90% 1016.2 hPa 0 mm - - -
1788585224 16.11° C 89% 1016.1 hPa 0 mm - - -
1788584325 15.56° C 89% 1015.8 hPa 0 mm - - -
1788583455 15.56° C 89% 1015.9 hPa 0 mm - - -
1788583425 15.56° C 89% 1015.9 hPa 0 mm - - -
1788582525 16.11° C 89% 1015.8 hPa 0 mm - - -
1788581625 16.11° C 89% 1015.8 hPa 0 mm - - -
1788580725 16.11° C 89% 1016 hPa 0 mm - - -
1788579825 16.11° C 89% 1015.9 hPa 0 mm - - -
1788578925 16.11° C 88% 1015.9 hPa 0 mm - - -
1788578025 16.67° C 88% 1015.9 hPa 0 mm - - -
1788577125 16.67° C 88% 1016 hPa 0 mm - - -
1788576225 16.67° C 88% 1016 hPa 0 mm - - -
1788575325 16.67° C 88% 1015.8 hPa 0 mm - - -
1788574425 17.22° C 88% 1015.7 hPa 0 mm - - -
1788573525 17.22° C 88% 1015.8 hPa 0 mm - - -
1788572625 17.22° C 88% 1015.8 hPa 0 mm - - -
1788571725 17.78° C 88% 1015.8 hPa 0 mm - - -
1788570905 17.78° C 87% 1015.8 hPa 0 mm - - -
1788570865 17.78° C 87% 1015.8 hPa 0 mm - - -

* Rain latest hour (hover to see other rain measurements)
** Current wind speed in m/s (hover to see current wind gust speed)